Helicity
140 159 173 157 169 142 156 125 99 57 63 60 40 48 34 47 86 176 256 471 402 378 260 137 138 96 82
47 103 213 212 181 201 133 132 136 134 98 108 62 65 72 68 108 222 427 593 423 334 178 176 127 92 63
73 19 59 118 117 113 94 80 79 77 65 43 54 47 19 58 189 366 498 545 267 281 240 175 130 93 79
19 8 13 40 39 68 62 53 64 60 39 43 22 5 -47 34 218 472 447 382 232 227 248 200 147 95 99
93 80 77 67 29 14 29 47 60 48 46 64 132 138 134 259 444 353 245 205 174 215 199 171 127 67 78
95 96 100 103 109 118 98 82 47 28 52 74 121 175 177 205 200 192 242 228 271 260 215 138 85 91 97
101 105 118 135 121 128 145 131 115 85 55 94 136 173 211 213 200 233 259 264 256 241 159 101 96 91 87
136 122 88 87 81 92 116 128 100 117 110 114 117 149 203 219 166 232 322 298 255 219 162 122 108 95 90
144 151 144 126 116 118 140 138 137 91 96 179 155 156 169 195 223 188 201 266 284 285 185 135 122 100 109
93 84 99 88 84 90 104 137 148 143 104 160 200 214 174 162 195 231 270 218 221 264 206 162 133 174 155
76 84 114 121 114 104 115 142 147 162 143 124 148 278 308 165 102 174 276 305 309 289 178 151 162 197 163
47 29 53 81 86 106 115 119 112 114 119 173 137 185 276 283 239 201 272 320 407 391 366 254 201 177 184
50 34 45 48 41 57 84 92 109 106 113 131 180 172 176 220 245 218 275 342 397 467 440 338 347 315 289
49 37 53 54 38 10 39 93 108 107 119 137 148 166 172 188 204 239 258 297 396 428 442 421 399 288 297
50 41 57 52 44 40 62 82 84 96 108 140 172 138 163 180 200 208 238 322 295 475 559 437 378 376 324
40 31 56 67 64 79 87 110 105 90 100 117 176 192 195 181 174 169 244 289 358 433 549 452 407 341 352
54 47 50 53 62 60 69 97 99 75 92 113 131 153 165 118 145 220 212 321 436 423 449 463 442 379 293
Wind_Speed
63 58 57 50 52 58 66 67 75 81 81 86 91 94 100 101 86 56 50 42 43 34 29 26 26 25 26
58 54 55 58 64 59 62 67 66 64 70 75 77 79 85 90 71 52 46 39 42 33 31 28 26 27 28
66 57 51 50 52 50 56 56 56 65 72 74 77 82 75 52 45 41 41 41 39 31 29 29 27 27 28
66 69 60 57 56 58 63 59 69 65 67 75 80 79 62 39 37 35 37 36 38 32 27 26 27 29 29
67 69 71 69 70 65 71 72 71 67 71 68 57 48 38 23 20 29 31 34 32 31 25 24 25 23 29
75 76 76 76 73 76 78 77 81 62 65 68 53 52 43 34 32 31 29 30 28 30 29 25 25 23 25
78 76 78 76 78 80 78 78 79 73 67 75 59 61 55 49 39 37 36 35 32 29 28 25 28 26 28
75 75 75 77 79 82 84 86 84 77 69 81 64 62 57 56 56 48 43 41 38 35 33 31 30 30 31
74 77 80 81 83 84 86 89 93 83 70 75 71 69 64 62 59 54 53 48 45 41 39 35 33 34 35
82 81 83 83 81 79 82 89 90 93 76 77 72 68 77 70 65 59 58 56 52 49 45 42 39 40 42
83 85 84 81 79 77 78 82 89 90 80 73 75 73 75 71 67 66 61 58 57 56 51 48 45 46 48
79 82 81 81 81 78 83 87 87 93 88 83 79 76 78 79 79 68 68 64 61 61 61 56 52 49 50
80 78 76 79 79 80 80 83 88 87 85 85 82 80 81 83 80 75 71 70 66 63 64 63 60 51 50
78 79 77 76 75 75 80 82 84 83 76 77 81 78 79 80 81 77 71 72 69 66 65 68 63 57 44
75 77 79 77 79 75 77 77 82 81 79 73 71 75 79 73 79 78 75 74 72 73 68 70 71 64 56
72 73 75 75 75 75 71 74 77 76 75 69 64 64 69 74 74 76 73 72 68 71 75 73 70 67 59
65 65 67 69 70 69 68 68 70 68 67 63 62 63 70 79 63 66 67 64 65 71 74 76 73 59 55
Wind_Direction
290 285 280 275 274 274 275 276 280 274 277 274 273 275 267 265 271 265 256 245 228 242 252 266 286 290 295
309 295 278 278 276 276 277 279 280 282 282 281 280 279 275 271 270 255 244 231 228 235 245 263 276 281 287
296 301 303 293 287 290 282 285 289 285 283 280 279 276 268 275 259 234 226 218 210 230 249 266 270 276 283
296 289 295 295 291 287 281 288 282 289 287 277 271 263 227 220 215 219 211 212 235 238 252 263 272 274 276
298 294 291 291 287 286 286 288 287 288 286 286 285 287 291 281 230 193 197 199 212 234 239 255 265 263 274
292 290 289 287 288 287 286 286 283 288 287 284 285 281 277 269 250 231 226 223 224 236 246 251 255 257 267
292 290 288 289 289 287 287 286 283 284 284 281 283 278 275 269 252 239 235 233 235 239 241 241 258 261 270
296 293 292 291 288 286 284 284 284 284 282 277 277 277 274 272 264 249 239 236 237 238 242 252 260 266 274
297 295 293 292 290 288 284 281 279 279 279 277 276 274 272 271 268 257 250 245 240 242 243 250 258 267 274
295 295 294 291 288 286 284 280 279 278 278 273 274 273 272 270 265 264 256 248 248 248 248 248 257 266 273
293 294 293 291 289 288 286 282 279 277 280 274 271 269 269 272 269 261 255 254 250 248 249 252 256 263 268
294 293 291 290 289 288 287 284 281 278 278 275 271 265 266 268 267 264 259 254 250 248 249 253 258 261 263
292 293 293 292 290 290 288 287 283 279 276 272 268 267 263 264 265 264 259 255 249 248 248 249 254 255 255
292 294 294 294 292 292 289 287 284 281 278 273 269 264 265 262 259 262 258 254 248 247 245 247 251 253 249
294 294 294 294 293 293 291 288 283 281 278 276 273 267 262 263 260 257 255 256 250 243 243 243 247 249 250
295 295 294 293 294 294 291 290 287 282 279 277 273 270 266 264 263 260 254 252 248 242 239 239 244 248 247
300 298 297 295 294 294 292 291 290 285 282 278 272 266 265 261 267 259 252 249 242 238 237 241 243 240 236